| time (UTC) | temp C | wind direction | speed KPH | gust KPH | rain 1hr cm | rain 24hr cm | rain mn cm | humidity % | barometer mb |
| 20260506234537 | 17 | 320 | 8.0 | 16.1 | 0.00 | 0.00 | 0.00 | 81 | 1007.9 |
| 20260506233031 | 17 | 330 | 6.4 | 17.7 | 0.00 | 0.00 | 0.00 | 81 | 1008.0 |
| 20260506231534 | 17 | 332 | 8.0 | 17.7 | 0.00 | 0.00 | 0.00 | 81 | 1007.6 |
| 20260506230027 | 18 | 327 | 9.7 | 17.7 | 0.00 | 0.00 | 0.00 | 81 | 1007.6 |
| 20260506224527 | 18 | 321 | 8.0 | 17.7 | 0.00 | 0.00 | 0.00 | 81 | 1007.7 |
| 20260506223037 | 18 | 333 | 9.7 | 19.3 | 0.00 | 0.00 | 0.00 | 81 | 1007.5 |
| 20260506221521 | 18 | 322 | 6.4 | 20.9 | 0.00 | 0.00 | 0.00 | 81 | 1007.2 |
| 20260506220021 | 19 | 298 | 8.0 | 19.3 | 0.00 | 0.00 | 0.00 | 81 | 1007.3 |
| 20260506214516 | 20 | 323 | 8.0 | 17.7 | 0.00 | 0.00 | 0.00 | 81 | 1007.2 |
| 20260506213013 | 20 | 335 | 8.0 | 24.1 | 0.00 | 0.00 | 0.00 | 81 | 1007.2 |
| 20260506211515 | 21 | 333 | 9.7 | 20.9 | 0.00 | 0.00 | 0.00 | 81 | 1006.9 |
| 20260506210014 | 21 | 317 | 11.3 | 20.9 | 0.00 | 0.00 | 0.00 | 82 | 1007.0 |
| 20260506204511 | 21 | 330 | 8.0 | 19.3 | 0.00 | 0.00 | 0.00 | 82 | 1006.8 |
| 20260506203021 | 22 | 327 | 9.7 | 17.7 | 0.00 | 0.00 | 0.00 | 83 | 1007.2 |
| 20260506201524 | 22 | 310 | 8.0 | 20.9 | 0.00 | 0.00 | 0.00 | 83 | 1007.3 |
| 20260506200011 | 22 | 291 | 1.6 | 17.7 | 0.00 | 0.00 | 0.00 | 83 | 1006.9 |
| 20260506194508 | 23 | 321 | 8.0 | 20.9 | 0.00 | 0.00 | 0.00 | 83 | 1006.7 |
| 20260506193007 | 25 | 333 | 6.4 | 16.1 | 0.00 | 0.00 | 0.00 | 84 | 1006.4 |
| 20260506191507 | 25 | 349 | 4.8 | 9.7 | 0.00 | 0.00 | 0.00 | 85 | 1006.4 |
| 20260506190006 | 25 | 348 | 3.2 | 8.0 | 0.00 | 0.00 | 0.00 | 86 | 1006.8 |
| 20260506184502 | 25 | 355 | 1.6 | 8.0 | 0.00 | 0.00 | 0.00 | 87 | 1006.8 |
| 20260506183105 | 23 | 355 | 1.6 | 14.5 | 0.00 | 0.00 | 0.00 | 87 | 1006.7 |
| 20260506181559 | 23 | 355 | 3.2 | 12.9 | 0.00 | 0.00 | 0.00 | 87 | 1006.9 |
| 20260506180059 | 22 | 328 | 1.6 | 8.0 | 0.00 | 0.00 | 0.00 | 87 | 1006.8 |
| 20260506174559 | 22 | 347 | 1.6 | 9.7 | 0.00 | 0.00 | 0.00 | 88 | 1007.1 |
| 20260506173103 | 21 | 335 | 3.2 | 8.0 | 0.00 | 0.00 | 0.00 | 88 | 1007.0 |
| 20260506171557 | 20 | 18 | 1.6 | 14.5 | 0.00 | 0.00 | 0.00 | 88 | 1007.2 |
| 20260506170112 | 20 | 346 | 4.8 | 12.9 | 0.00 | 0.00 | 0.00 | 88 | 1007.2 |
| 20260506164556 | 20 | 343 | 3.2 | 16.1 | 0.00 | 0.00 | 0.00 | 88 | 1007.6 |
| 20260506163102 | 20 | 319 | 9.7 | 19.3 | 0.00 | 0.00 | 0.00 | 87 | 1007.9 |
| 20260506161548 | 23 | 340 | 14.5 | 30.6 | 0.00 | 0.00 | 0.00 | 87 | 1007.8 |
| 20260506160047 | 24 | 307 | 0.0 | 4.8 | 0.00 | 0.00 | 0.00 | 89 | 1007.6 |
| 20260506154544 | 23 | 307 | 1.6 | 6.4 | 0.00 | 0.00 | 0.00 | 89 | 1007.5 |
| 20260506153041 | 23 | 307 | 0.0 | 3.2 | 0.00 | 0.00 | 0.00 | 89 | 1007.3 |
| 20260506151543 | 23 | 83 | 0.0 | 3.2 | 0.00 | 0.00 | 0.00 | 89 | 1006.6 |
| 20260506150037 | 23 | 82 | 0.0 | 3.2 | 0.00 | 0.00 | 0.00 | 89 | 1006.2 |
| 20260506144545 | 23 | 184 | 0.0 | 3.2 | 0.00 | 0.00 | 0.00 | 89 | 1006.2 |
| 20260506143036 | 23 | 153 | 0.0 | 9.7 | 0.00 | 0.00 | 0.00 | 89 | 1005.9 |
| 20260506141535 | 23 | 171 | 0.0 | 3.2 | 0.00 | 0.00 | 0.00 | 89 | 1006.0 |
| 20260506140033 | 23 | 171 | 0.0 | 3.2 | 0.00 | 0.00 | 0.00 | 89 | 1006.2 |
| 20260506134531 | 23 | 170 | 0.0 | 4.8 | 0.00 | 0.00 | 0.00 | 89 | 1005.1 |
| 20260506133029 | 23 | 166 | 4.8 | 8.0 | 0.00 | 0.00 | 0.00 | 89 | 1005.2 |
| 20260506131534 | 23 | 202 | 0.0 | 6.4 | 0.00 | 0.00 | 0.00 | 89 | 1005.2 |
| 20260506130029 | 23 | 111 | 1.6 | 8.0 | 0.00 | 0.00 | 0.00 | 89 | 1005.0 |
| 20260506124530 | 23 | 80 | 1.6 | 4.8 | 0.00 | 0.00 | 0.00 | 89 | 1004.9 |
| 20260506123030 | 23 | 169 | 0.0 | 4.8 | 0.00 | 0.00 | 0.00 | 89 | 1004.8 |
| 20260506121527 | 23 | 169 | 0.0 | 1.6 | 0.00 | 0.00 | 0.00 | 89 | 1005.0 |
| 20260506120038 | 23 | 169 | 0.0 | 3.2 | 0.00 | 0.00 | 0.00 | 89 | 1004.9 |
| 20260506114523 | 23 | 169 | 0.0 | 3.2 | 0.00 | 0.00 | 0.00 | 89 | 1004.7 |
| 20260506113029 | 23 | 169 | 0.0 | 8.0 | 0.00 | 0.00 | 0.00 | 89 | 1004.8 |
| 20260506111520 | 23 | 168 | 0.0 | 8.0 | 0.00 | 0.00 | 0.00 | 89 | 1004.7 |
| 20260506110020 | 23 | 168 | 1.6 | 8.0 | 0.00 | 0.00 | 0.00 | 89 | 1004.6 |
| 20260506104520 | 23 | 141 | 1.6 | 8.0 | 0.00 | 0.00 | 0.00 | 89 | 1004.4 |
| 20260506103018 | 23 | 169 | 3.2 | 8.0 | 0.00 | 0.00 | 0.00 | 89 | 1004.3 |
| 20260506101519 | 23 | 149 | 4.8 | 11.3 | 0.00 | 0.00 | 0.00 | 89 | 1004.2 |
| 20260506100018 | 23 | 200 | 3.2 | 8.0 | 0.00 | 0.00 | 0.00 | 88 | 1004.2 |
| 20260506094520 | 23 | 186 | 4.8 | 17.7 | 0.00 | 0.00 | 0.00 | 88 | 1004.1 |
| 20260506093018 | 23 | 167 | 4.8 | 12.9 | 0.00 | 0.00 | 0.00 | 88 | 1003.9 |
| 20260506091518 | 23 | 172 | 3.2 | 14.5 | 0.00 | 0.00 | 0.00 | 88 | 1003.8 |
| 20260506090019 | 23 | 183 | 4.8 | 8.0 | 0.00 | 0.00 | 0.00 | 88 | 1003.8 |
| 20260506084515 | 23 | 167 | 4.8 | 12.9 | 0.00 | 0.00 | 0.00 | 88 | 1003.7 |
| 20260506083015 | 23 | 197 | 6.4 | 19.3 | 0.00 | 0.00 | 0.00 | 88 | 1003.7 |
| 20260506081513 | 23 | 176 | 4.8 | 22.5 | 0.00 | 0.00 | 0.00 | 88 | 1003.7 |
| 20260506073007 | 23 | 175 | 4.8 | 16.1 | 0.00 | 0.00 | 0.00 | 88 | 1004.1 |
| 20260506071505 | 23 | 166 | 8.0 | 16.1 | 0.00 | 0.00 | 0.00 | 87 | 1004.4 |
| 20260506061603 | 23 | 182 | 6.4 | 14.5 | 0.00 | 0.00 | 0.00 | 86 | 1004.4 |
| 20260506050106 | 23 | 183 | 8.0 | 14.5 | 0.00 | 0.00 | 0.00 | 85 | 1004.6 |
| 20260506044552 | 24 | 156 | 8.0 | 17.7 | 0.00 | 0.00 | 0.00 | 85 | 1004.6 |
| 20260506043054 | 24 | 217 | 6.4 | 16.1 | 0.00 | 0.00 | 0.00 | 85 | 1004.5 |
| 20260506041550 | 24 | 192 | 3.2 | 12.9 | 0.00 | 0.00 | 0.00 | 84 | 1004.3 |
| 20260506040051 | 24 | 156 | 4.8 | 12.9 | 0.00 | 0.00 | 0.00 | 84 | 1004.2 |
| 20260506034550 | 24 | 168 | 4.8 | 12.9 | 0.00 | 0.00 | 0.00 | 84 | 1004.0 |
| 20260506033049 | 24 | 176 | 4.8 | 12.9 | 0.00 | 0.00 | 0.00 | 83 | 1003.9 |
| 20260506031550 | 24 | 141 | 4.8 | 11.3 | 0.00 | 0.00 | 0.00 | 83 | 1003.6 |
| 20260506030052 | 25 | 157 | 4.8 | 11.3 | 0.00 | 0.00 | 0.00 | 82 | 1003.4 |
| 20260506024554 | 25 | 132 | 4.8 | 11.3 | 0.00 | 0.00 | 0.00 | 81 | 1003.2 |
| 20260506023045 | 25 | 153 | 4.8 | 9.7 | 0.00 | 0.00 | 0.00 | 81 | 1003.0 |
| 20260506021558 | 25 | 112 | 4.8 | 11.3 | 0.00 | 0.00 | 0.00 | 80 | 1002.7 |
| 20260506020044 | 25 | 187 | 3.2 | 8.0 | 0.00 | 0.00 | 0.00 | 79 | 1002.4 |
| 20260506014544 | 25 | 190 | 3.2 | 9.7 | 0.00 | 0.00 | 0.00 | 79 | 1002.2 |
| 20260506013053 | 26 | 178 | 3.2 | 6.4 | 0.00 | 0.00 | 0.00 | 78 | 1002.1 |
| 20260506011542 | 26 | 176 | 0.0 | 4.8 | 0.00 | 0.00 | 0.00 | 77 | 1002.3 |
| 20260506010040 | 26 | 176 | 1.6 | 4.8 | 0.00 | 0.00 | 0.00 | 77 | 1002.2 |
| 20260506004539 | 26 | 176 | 0.0 | 9.7 | 0.00 | 0.00 | 0.00 | 77 | 1002.2 |
| 20260506003038 | 27 | 171 | 4.8 | 6.4 | 0.00 | 0.00 | 0.00 | 77 | 1002.0 |
| 20260506001541 | 27 | 155 | 4.8 | 11.3 | 0.00 | 0.00 | 0.00 | 76 | 1002.1 |
| 20260506000040 | 27 | 155 | 3.2 | 12.9 | 0.00 | 0.00 | 0.00 | 76 | 1001.9 |